Prague, Czech Republic

5:31 AM CEST on May 28, 2017 (GMT +0200)
Ruzyne

Weather History for LKPR - March, 2013

Change the Weather History Date:

Saturday, March 30, 2013

  Actual Average Record
Temperature  
Mean Temperature 34 °F -  
Max Temperature 41 °F 56 °F 63 °F (2014)
Min Temperature 28 °F 36 °F 28 °F (2013)
Degree Days  
Heating Degree Days 30    
Moisture  
Dew Point 25 °F    
Average Humidity 70    
Maximum Humidity 86    
Minimum Humidity 39    
Precipitation  
Precipitation 0.00 in 0.05 in - ()
Sea Level Pressure  
Sea Level Pressure 29.67 in    
Wind  
Wind Speed 4 mph ()    
Max Wind Speed 13 mph    
Max Gust Speed -    
Visibility 4.4 miles    
Events      
Averages and records for this station are not official NWS values.
T = Trace of Precipitation, MM = Missing Value Source: Averaged Metar Reports

Daily Weather History Graph

Daily Weather History Graph

Search for Another Location

Airport or City:

Trip Planner

Search our weather history database for the weather conditions in past years. The results will help you decide how hot, cold, wet, or windy it might be!

Date:

Astronomy

Mar. 30, 2013 Rise Set
Actual Time 5:43 AM CET 6:31 PM CET
Civil Twilight 5:11 AM CET 7:04 PM CET
Nautical Twilight 4:31 AM CET 7:43 PM CET
Astronomical Twilight 3:50 AM CET 8:25 PM CET
Moon 10:43 PM CET (3/30) 7:03 AM CET (3/30)
Length of Visible Light 13h 53m
Length of Day
12h 47m
Waning Gibbous, 88% of the Moon is Illuminated
Mar 30
Waning Gibbous
Apr 3
Last Quarter
Apr 10
New
Apr 18
First Quarter
Apr 25
Full

Hourly Weather History & Observations

Time (CET) Temp. Windchill Dew Point Humidity Pressure Visibility Wind Dir Wind Speed Gust Speed Precip Events Conditions
12:00 AM 30.2 °F - 23.0 °F 75% 29.68 in 4.3 mi East 2.3 mph - N/A   Unknown
12:30 AM 30.2 °F - 23.0 °F 75% 29.68 in 4.3 mi Variable 1.2 mph - N/A   Unknown
1:00 AM 30 °F - 23 °F 64% 29.77 in 4 mi East 2.2 mph - -   Mist
1:00 AM 30.2 °F - 23.0 °F 75% 29.68 in 4.3 mi East 1.2 mph - N/A   Unknown
1:30 AM 30.2 °F 26.7 °F 23.0 °F 75% 29.68 in 4.3 mi ESE 3.5 mph - N/A   Unknown
2:00 AM 30.2 °F 26.7 °F 24.8 °F 80% 29.68 in 4.3 mi SE 3.5 mph - N/A   Unknown
2:30 AM 30.2 °F - 24.8 °F 80% 29.68 in 4.3 mi Variable 2.3 mph - N/A   Unknown
3:00 AM 30.2 °F 24.3 °F 24.8 °F 80% 29.68 in 3.7 mi ESE 5.8 mph - N/A   Unknown
3:30 AM 30.2 °F 24.3 °F 24.8 °F 80% 29.65 in 3.7 mi SE 5.8 mph - N/A   Unknown
4:00 AM 30.2 °F - 24.8 °F 80% 29.65 in 3.1 mi Variable 2.3 mph - N/A   Mist
4:30 AM 28.4 °F - 24.8 °F 86% 29.65 in 3.1 mi Calm Calm - N/A   Mist
5:00 AM 30.2 °F - 24.8 °F 80% 29.65 in 3.1 mi Calm Calm - N/A   Partly Cloudy
5:30 AM 28.4 °F 24.6 °F 24.8 °F 86% 29.65 in 3.1 mi ESE 3.5 mph - N/A   Mist
6:00 AM 28.4 °F 24.6 °F 24.8 °F 86% 29.65 in 2.5 mi Variable 3.5 mph - N/A   Mist
6:30 AM 30.2 °F - 24.8 °F 80% 29.68 in 2.5 mi Variable 2.3 mph - N/A   Mist
7:00 AM 30 °F - 26 °F 79% 29.74 in 2 mi East 4.5 mph - -   Mist
7:00 AM 30.2 °F - 26.6 °F 86% 29.65 in 2.5 mi East 2.3 mph - N/A   Mist
7:30 AM 30.2 °F 26.7 °F 26.6 °F 86% 29.68 in - North 3.5 mph - N/A   Mist
8:00 AM 32.0 °F 28.7 °F 26.6 °F 80% 29.68 in - NNE 3.5 mph - N/A   Mist
8:30 AM 32.0 °F 28.7 °F 26.6 °F 80% 29.68 in 2.5 mi NNE 3.5 mph - N/A   Mist
9:00 AM 33.8 °F 29.6 °F 26.6 °F 75% 29.68 in - NE 4.6 mph - N/A   Mist
9:30 AM 33.8 °F 29.6 °F 26.6 °F 75% 29.68 in 3.1 mi East 4.6 mph - N/A   Mist
10:00 AM 35.6 °F 31.7 °F 26.6 °F 70% 29.68 in 3.1 mi ENE 4.6 mph - N/A   Mostly Cloudy
10:30 AM 37.4 °F 34.9 °F 26.6 °F 65% 29.68 in 4.3 mi ENE 3.5 mph - N/A   Mostly Cloudy
11:00 AM 37.4 °F 34.9 °F 24.8 °F 60% 29.65 in 4.3 mi NNE 3.5 mph - N/A   Partly Cloudy
11:30 AM 39.2 °F - 26.6 °F 61% 29.65 in 5.0 mi Variable 1.2 mph - N/A   Scattered Clouds
12:00 PM 41.0 °F 39.0 °F 24.8 °F 53% 29.65 in 5.6 mi North 3.5 mph - N/A   Scattered Clouds
12:30 PM 41.0 °F 39.0 °F 24.8 °F 53% 29.65 in 6.2 mi Variable 3.5 mph - N/A   Mostly Cloudy
1:00 PM 41 °F - 25 °F 39% 29.70 in 6 mi North 4.5 mph - -   Mostly Cloudy
1:00 PM 41.0 °F 36.4 °F 24.8 °F 53% 29.65 in 6.2 mi NNE 6.9 mph - N/A   Mostly Cloudy
1:30 PM 41.0 °F 35.2 °F 26.6 °F 57% 29.65 in 5.6 mi NNE 9.2 mph - N/A   Scattered Clouds
2:00 PM 41.0 °F 36.4 °F 26.6 °F 57% 29.65 in 5.0 mi NE 6.9 mph - N/A   Mostly Cloudy
2:30 PM 41.0 °F 35.2 °F 26.6 °F 57% 29.65 in 5.0 mi NNE 9.2 mph - N/A   Mostly Cloudy
3:00 PM 39.2 °F 33.0 °F 26.6 °F 61% 29.65 in 5.0 mi NNE 9.2 mph - N/A   Mostly Cloudy
3:30 PM 39.2 °F 33.0 °F 26.6 °F 61% 29.65 in 5.0 mi North 9.2 mph - N/A   Partly Cloudy
4:00 PM 39.2 °F 33.0 °F 26.6 °F 61% 29.65 in 5.0 mi North 9.2 mph - N/A   Unknown
4:30 PM 39.2 °F 32.5 °F 26.6 °F 61% 29.65 in 5.6 mi North 10.4 mph - N/A   Unknown
5:00 PM 39.2 °F 32.0 °F 24.8 °F 56% 29.62 in 5.6 mi North 11.5 mph - N/A   Unknown
5:30 PM 37.4 °F 29.8 °F 24.8 °F 60% 29.62 in 5.6 mi NNE 11.5 mph - N/A   Unknown
6:00 PM 35.6 °F 27.1 °F 24.8 °F 65% 29.62 in 5.0 mi North 12.7 mph - N/A   Unknown
6:30 PM 33.8 °F 25.3 °F 26.6 °F 75% 29.65 in 5.0 mi North 11.5 mph - N/A   Unknown
7:00 PM 34 °F - 26 °F 62% 29.73 in 4 mi NNE 11.2 mph - -   Mist
7:00 PM 33.8 °F 26.4 °F 24.8 °F 70% 29.65 in 4.3 mi North 9.2 mph - N/A   Unknown
7:30 PM 33.8 °F 26.4 °F 24.8 °F 70% 29.68 in 4.3 mi North 9.2 mph - N/A   Unknown
8:00 PM 33.8 °F 27.0 °F 24.8 °F 70% 29.68 in 5.0 mi North 8.1 mph - N/A   Unknown
8:30 PM 32.0 °F 23.6 °F 24.8 °F 75% 29.68 in 5.0 mi North 10.4 mph - N/A   Mostly Cloudy
9:00 PM 32.0 °F 23.6 °F 23.0 °F 69% 29.68 in 5.0 mi North 10.4 mph - N/A   Mostly Cloudy
9:30 PM 32.0 °F 24.8 °F 23.0 °F 69% 29.68 in 5.6 mi North 8.1 mph - N/A   Mostly Cloudy
10:00 PM 32.0 °F 25.6 °F 23.0 °F 69% 29.71 in 5.6 mi North 6.9 mph - N/A   Mostly Cloudy
10:30 PM 32.0 °F 25.6 °F 23.0 °F 69% 29.71 in 5.0 mi North 6.9 mph - N/A   Mostly Cloudy
11:00 PM 30.2 °F 23.4 °F 24.8 °F 80% 29.71 in 5.0 mi North 6.9 mph - N/A   Partly Cloudy
11:30 PM 30.2 °F 22.6 °F 24.8 °F 80% 29.68 in 5.0 mi North 8.1 mph - N/A   Partly Cloudy